| time (UTC) | temp F | wind direction | speed MPH | gust MPH | rain 1hr in | rain 24hr in | rain mn in | humidity % | barometer mb |
| 20260505153055 | 55 | 228 | 3.0 | 5.0 | 0.00 | 0.00 | 0.00 | 87 | 1015.8 |
| 20260505152551 | 55 | 195 | 2.0 | 3.0 | 0.00 | 0.00 | 0.00 | 88 | 1015.7 |
| 20260505152047 | 55 | 194 | 6.0 | 8.0 | 0.00 | 0.00 | 0.00 | 88 | 1015.6 |
| 20260505151542 | 55 | 174 | 1.0 | 2.0 | 0.00 | 0.00 | 0.00 | 88 | 1015.5 |
| 20260505151040 | 55 | 169 | 6.0 | 7.0 | 0.00 | 0.00 | 0.00 | 88 | 1015.4 |
| 20260505150536 | 55 | 224 | 4.0 | 5.0 | 0.00 | 0.00 | 0.00 | 88 | 1015.5 |
| 20260505140502 | 55 | 175 | 7.0 | 8.0 | 0.00 | 0.00 | 0.00 | 87 | 1014.9 |
| 20260505124915 | 55 | 191 | 5.0 | 7.0 | 0.00 | 0.00 | 0.00 | 88 | 1014.2 |
| 20260505124412 | 55 | 196 | 3.0 | 3.0 | 0.00 | 0.00 | 0.00 | 89 | 1014.2 |
| 20260505123908 | 54 | 212 | 8.0 | 9.0 | 0.00 | 0.00 | 0.00 | 89 | 1014.2 |
| 20260505123405 | 54 | 154 | 7.0 | 9.0 | 0.00 | 0.00 | 0.00 | 89 | 1014.1 |
| 20260505122900 | 55 | 194 | 6.0 | 7.0 | 0.00 | 0.00 | 0.00 | 89 | 1013.9 |
| 20260505122358 | 54 | 162 | 9.0 | 10.0 | 0.00 | 0.00 | 0.00 | 89 | 1014.0 |
| 20260505121855 | 54 | 190 | 8.0 | 9.0 | 0.00 | 0.00 | 0.00 | 89 | 1014.0 |
| 20260505121352 | 54 | 177 | 13.0 | 17.0 | 0.00 | 0.00 | 0.00 | 89 | 1014.1 |
| 20260505120847 | 54 | 167 | 5.0 | 7.0 | 0.00 | 0.00 | 0.00 | 89 | 1014.0 |
| 20260505120344 | 54 | 203 | 11.0 | 14.0 | 0.00 | 0.00 | 0.00 | 89 | 1014.0 |
| 20260505115843 | 54 | 172 | 7.0 | 10.0 | 0.00 | 0.00 | 0.00 | 89 | 1014.1 |
| 20260505115340 | 54 | 175 | 4.0 | 5.0 | 0.00 | 0.00 | 0.00 | 90 | 1013.9 |
| 20260505114838 | 54 | 198 | 9.0 | 11.0 | 0.00 | 0.00 | 0.00 | 90 | 1013.9 |
| 20260505114334 | 54 | 181 | 7.0 | 8.0 | 0.00 | 0.00 | 0.00 | 89 | 1013.9 |
| 20260505113830 | 54 | 189 | 7.0 | 9.0 | 0.00 | 0.00 | 0.00 | 89 | 1013.7 |
| 20260505113327 | 54 | 212 | 4.0 | 9.0 | 0.00 | 0.00 | 0.00 | 90 | 1013.7 |
| 20260505112823 | 54 | 175 | 5.0 | 7.0 | 0.00 | 0.00 | 0.00 | 90 | 1014.0 |
| 20260505112321 | 54 | 177 | 10.0 | 13.0 | 0.00 | 0.00 | 0.00 | 90 | 1013.5 |
| 20260505111816 | 54 | 162 | 5.0 | 6.0 | 0.00 | 0.00 | 0.00 | 90 | 1013.7 |
| 20260505111311 | 54 | 212 | 5.0 | 6.0 | 0.00 | 0.00 | 0.00 | 90 | 1013.7 |
| 20260505110808 | 54 | 238 | 2.0 | 2.0 | 0.00 | 0.00 | 0.00 | 91 | 1013.7 |
| 20260505110305 | 54 | 205 | 7.0 | 8.0 | 0.00 | 0.00 | 0.00 | 90 | 1013.6 |
| 20260505101740 | 54 | 202 | 8.0 | 9.0 | 0.00 | 0.00 | 0.00 | 91 | 1013.2 |
| 20260505101235 | 54 | 248 | 2.0 | 5.0 | 0.00 | 0.00 | 0.00 | 91 | 1013.2 |
| 20260505100732 | 54 | 219 | 3.0 | 3.0 | 0.00 | 0.00 | 0.00 | 91 | 1013.0 |
| 20260505100229 | 54 | 190 | 9.0 | 10.0 | 0.00 | 0.00 | 0.00 | 91 | 1013.1 |
| 20260505095724 | 54 | 189 | 4.0 | 5.0 | 0.00 | 0.00 | 0.00 | 91 | 1013.1 |
| 20260505095222 | 54 | 188 | 7.0 | 8.0 | 0.00 | 0.00 | 0.00 | 91 | 1013.2 |
| 20260505094717 | 54 | 181 | 6.0 | 7.0 | 0.00 | 0.00 | 0.00 | 91 | 1013.2 |
| 20260505094214 | 54 | 247 | 3.0 | 5.0 | 0.00 | 0.00 | 0.00 | 91 | 1013.0 |
| 20260505093710 | 54 | 208 | 9.0 | 10.0 | 0.00 | 0.00 | 0.00 | 91 | 1012.9 |
| 20260505093208 | 54 | 200 | 4.0 | 6.0 | 0.00 | 0.00 | 0.00 | 91 | 1012.9 |
| 20260505092704 | 54 | 231 | 1.0 | 3.0 | 0.00 | 0.00 | 0.00 | 91 | 1012.7 |
| 20260505092204 | 54 | 243 | 6.0 | 8.0 | 0.00 | 0.00 | 0.00 | 90 | 1012.6 |
| 20260505091700 | 54 | 180 | 1.0 | 2.0 | 0.00 | 0.00 | 0.00 | 90 | 1012.8 |
| 20260505091158 | 54 | 202 | 4.0 | 7.0 | 0.00 | 0.00 | 0.00 | 90 | 1012.7 |
| 20260505090655 | 54 | 191 | 9.0 | 9.0 | 0.00 | 0.00 | 0.00 | 90 | 1012.6 |
| 20260505090154 | 54 | 186 | 3.0 | 3.0 | 0.00 | 0.00 | 0.00 | 90 | 1012.8 |
| 20260505085650 | 54 | 206 | 5.0 | 6.0 | 0.00 | 0.00 | 0.00 | 90 | 1012.7 |
| 20260505085149 | 55 | 194 | 4.0 | 5.0 | 0.00 | 0.00 | 0.00 | 90 | 1012.6 |
| 20260505084646 | 55 | 197 | 7.0 | 7.0 | 0.00 | 0.00 | 0.00 | 90 | 1012.8 |
| 20260505084144 | 55 | 207 | 8.0 | 9.0 | 0.00 | 0.00 | 0.00 | 90 | 1012.7 |
| 20260505083642 | 55 | 203 | 5.0 | 6.0 | 0.00 | 0.00 | 0.00 | 90 | 1012.4 |
| 20260505083138 | 55 | 219 | 1.0 | 2.0 | 0.00 | 0.00 | 0.00 | 90 | 1012.6 |
| 20260505082634 | 55 | 255 | 3.0 | 6.0 | 0.00 | 0.00 | 0.00 | 89 | 1012.4 |
| 20260505082131 | 55 | 202 | 6.0 | 7.0 | 0.00 | 0.00 | 0.00 | 89 | 1012.4 |
| 20260505081627 | 55 | 173 | 5.0 | 6.0 | 0.00 | 0.00 | 0.00 | 89 | 1012.5 |
| 20260505081125 | 55 | 199 | 4.0 | 5.0 | 0.00 | 0.00 | 0.00 | 89 | 1012.5 |
| 20260505080621 | 55 | 203 | 7.0 | 10.0 | 0.00 | 0.00 | 0.00 | 89 | 1012.4 |
| 20260505080117 | 55 | 201 | 5.0 | 6.0 | 0.00 | 0.00 | 0.00 | 89 | 1012.5 |
| 20260505075614 | 55 | 167 | 8.0 | 10.0 | 0.00 | 0.00 | 0.00 | 88 | 1012.4 |
| 20260505075110 | 55 | 208 | 2.0 | 3.0 | 0.00 | 0.00 | 0.00 | 88 | 1012.3 |
| 20260505074607 | 55 | 212 | 4.0 | 5.0 | 0.00 | 0.00 | 0.00 | 88 | 1012.5 |
| 20260505074104 | 56 | 171 | 7.0 | 10.0 | 0.00 | 0.00 | 0.00 | 88 | 1012.2 |
| 20260505073602 | 56 | 208 | 4.0 | 7.0 | 0.00 | 0.00 | 0.00 | 88 | 1012.1 |
| 20260505073100 | 56 | 199 | 3.0 | 3.0 | 0.00 | 0.00 | 0.00 | 88 | 1012.1 |
| 20260505072555 | 56 | 179 | 4.0 | 5.0 | 0.00 | 0.00 | 0.00 | 87 | 1012.1 |
| 20260505072052 | 56 | 244 | 2.0 | 3.0 | 0.00 | 0.00 | 0.00 | 87 | 1012.2 |
| 20260505071548 | 56 | 207 | 7.0 | 10.0 | 0.00 | 0.00 | 0.00 | 87 | 1012.1 |
| 20260505071046 | 56 | 199 | 6.0 | 7.0 | 0.00 | 0.00 | 0.00 | 87 | 1011.8 |
| 20260505070543 | 56 | 245 | 5.0 | 7.0 | 0.00 | 0.00 | 0.00 | 87 | 1011.7 |
| 20260505070039 | 56 | 239 | 2.0 | 2.0 | 0.00 | 0.00 | 0.00 | 86 | 1011.7 |
| 20260505065535 | 56 | 180 | 7.0 | 9.0 | 0.00 | 0.00 | 0.00 | 86 | 1011.5 |
| 20260505065032 | 57 | 203 | 8.0 | 9.0 | 0.00 | 0.00 | 0.00 | 86 | 1011.7 |
| 20260505064528 | 57 | 200 | 6.0 | 7.0 | 0.00 | 0.00 | 0.00 | 85 | 1011.8 |
| 20260505064027 | 57 | 197 | 8.0 | 10.0 | 0.00 | 0.00 | 0.00 | 85 | 1011.8 |
| 20260505063524 | 57 | 177 | 3.0 | 3.0 | 0.00 | 0.00 | 0.00 | 85 | 1011.5 |
| 20260505063020 | 57 | 203 | 3.0 | 5.0 | 0.00 | 0.00 | 0.00 | 85 | 1011.7 |
| 20260505062517 | 57 | 179 | 5.0 | 6.0 | 0.00 | 0.00 | 0.00 | 84 | 1011.7 |
| 20260505062014 | 58 | 173 | 5.0 | 6.0 | 0.00 | 0.00 | 0.00 | 84 | 1011.5 |
| 20260505061511 | 58 | 200 | 5.0 | 6.0 | 0.00 | 0.00 | 0.00 | 84 | 1011.4 |
| 20260505061009 | 58 | 211 | 0.0 | 0.0 | 0.00 | 0.00 | 0.00 | 83 | 1011.1 |
| 20260505060506 | 58 | 226 | 5.0 | 7.0 | 0.00 | 0.00 | 0.00 | 82 | 1011.3 |
| 20260505060002 | 59 | 194 | 9.0 | 9.0 | 0.00 | 0.00 | 0.00 | 82 | 1010.9 |
| 20260505055458 | 59 | 201 | 8.0 | 9.0 | 0.00 | 0.00 | 0.00 | 82 | 1011.3 |
| 20260505054955 | 59 | 173 | 7.0 | 9.0 | 0.00 | 0.00 | 0.00 | 81 | 1011.2 |
| 20260505054453 | 59 | 193 | 4.0 | 6.0 | 0.00 | 0.00 | 0.00 | 81 | 1011.4 |
| 20260505053950 | 60 | 189 | 7.0 | 8.0 | 0.00 | 0.00 | 0.00 | 80 | 1011.0 |
| 20260505053447 | 60 | 205 | 4.0 | 6.0 | 0.00 | 0.00 | 0.00 | 80 | 1011.1 |
| 20260505052944 | 60 | 194 | 9.0 | 10.0 | 0.00 | 0.00 | 0.00 | 80 | 1010.8 |
| 20260505052441 | 60 | 172 | 6.0 | 7.0 | 0.00 | 0.00 | 0.00 | 79 | 1011.1 |
| 20260505051938 | 60 | 251 | 4.0 | 7.0 | 0.00 | 0.00 | 0.00 | 79 | 1010.8 |
| 20260505051435 | 61 | 206 | 5.0 | 6.0 | 0.00 | 0.00 | 0.00 | 78 | 1010.8 |
| 20260505050933 | 61 | 273 | 3.0 | 3.0 | 0.00 | 0.00 | 0.00 | 77 | 1010.6 |
| 20260505050431 | 62 | 207 | 3.0 | 5.0 | 0.00 | 0.00 | 0.00 | 76 | 1010.8 |
| 20260505041359 | 64 | 274 | 1.0 | 2.0 | 0.00 | 0.00 | 0.00 | 73 | 1010.2 |
| 20260505040856 | 64 | 234 | 3.0 | 3.0 | 0.00 | 0.00 | 0.00 | 73 | 1010.0 |
| 20260505040353 | 64 | 221 | 2.0 | 3.0 | 0.00 | 0.00 | 0.00 | 72 | 1010.0 |
| 20260505035850 | 65 | 248 | 1.0 | 3.0 | 0.00 | 0.00 | 0.00 | 71 | 1009.9 |
| 20260505035345 | 65 | 200 | 1.0 | 2.0 | 0.00 | 0.00 | 0.00 | 71 | 1009.9 |
| 20260505034843 | 66 | 264 | 1.0 | 2.0 | 0.00 | 0.00 | 0.00 | 70 | 1009.8 |
| 20260505034340 | 66 | 228 | 3.0 | 3.0 | 0.00 | 0.00 | 0.00 | 69 | 1009.5 |
| 20260505033837 | 66 | 232 | 5.0 | 6.0 | 0.00 | 0.00 | 0.00 | 69 | 1009.6 |
| 20260505033334 | 67 | 274 | 5.0 | 7.0 | 0.00 | 0.00 | 0.00 | 68 | 1009.3 |
| 20260505032832 | 67 | 301 | 0.0 | 0.0 | 0.00 | 0.00 | 0.00 | 67 | 1009.4 |
| 20260505032328 | 68 | 317 | 1.0 | 1.0 | 0.00 | 0.00 | 0.00 | 66 | 1009.5 |
| 20260505031825 | 68 | 236 | 3.0 | 5.0 | 0.00 | 0.00 | 0.00 | 66 | 1009.5 |
| 20260505031321 | 69 | 254 | 2.0 | 2.0 | 0.00 | 0.00 | 0.00 | 64 | 1009.3 |
| 20260505030819 | 69 | 260 | 5.0 | 6.0 | 0.00 | 0.00 | 0.00 | 63 | 1009.2 |
| 20260505030315 | 70 | 269 | 3.0 | 3.0 | 0.00 | 0.00 | 0.00 | 61 | 1009.2 |
| 20260505025810 | 71 | 252 | 5.0 | 6.0 | 0.00 | 0.00 | 0.00 | 59 | 1009.2 |
| 20260505025308 | 71 | 266 | 0.0 | 1.0 | 0.00 | 0.00 | 0.00 | 58 | 1009.0 |
| 20260505024807 | 72 | 299 | 2.0 | 3.0 | 0.00 | 0.00 | 0.00 | 58 | 1009.2 |
| 20260505024304 | 72 | 294 | 3.0 | 3.0 | 0.00 | 0.00 | 0.00 | 57 | 1009.0 |
| 20260505023801 | 73 | 292 | 3.0 | 5.0 | 0.00 | 0.00 | 0.00 | 56 | 1009.0 |
| 20260505023258 | 73 | 280 | 2.0 | 3.0 | 0.00 | 0.00 | 0.00 | 55 | 1008.9 |
| 20260505022755 | 74 | 287 | 5.0 | 7.0 | 0.00 | 0.00 | 0.00 | 55 | 1009.0 |
| 20260505022252 | 75 | 291 | 7.0 | 9.0 | 0.00 | 0.00 | 0.00 | 55 | 1008.9 |
| 20260505021749 | 75 | 306 | 2.0 | 2.0 | 0.00 | 0.00 | 0.00 | 54 | 1009.0 |
| 20260505021246 | 76 | 295 | 2.0 | 3.0 | 0.00 | 0.00 | 0.00 | 53 | 1009.0 |
| 20260505020741 | 77 | 279 | 4.0 | 7.0 | 0.00 | 0.00 | 0.00 | 52 | 1008.9 |
| 20260505020237 | 77 | 255 | 2.0 | 3.0 | 0.00 | 0.00 | 0.00 | 51 | 1008.8 |
| 20260505015734 | 78 | 254 | 1.0 | 2.0 | 0.00 | 0.00 | 0.00 | 50 | 1008.7 |
| 20260505015231 | 77 | 256 | 2.0 | 3.0 | 0.00 | 0.00 | 0.00 | 51 | 1008.8 |
| 20260505014728 | 77 | 173 | 3.0 | 3.0 | 0.00 | 0.00 | 0.00 | 51 | 1008.8 |
| 20260505014226 | 77 | 255 | 2.0 | 3.0 | 0.00 | 0.00 | 0.00 | 50 | 1009.0 |
| 20260505013722 | 78 | 273 | 2.0 | 2.0 | 0.00 | 0.00 | 0.00 | 49 | 1009.0 |
| 20260505013219 | 79 | 267 | 0.0 | 1.0 | 0.00 | 0.00 | 0.00 | 48 | 1008.9 |
| 20260505012718 | 78 | 290 | 2.0 | 2.0 | 0.00 | 0.00 | 0.00 | 49 | 1009.1 |
| 20260505012215 | 78 | 278 | 0.0 | 1.0 | 0.00 | 0.00 | 0.00 | 49 | 1009.1 |
| 20260505011710 | 78 | 286 | 2.0 | 2.0 | 0.00 | 0.00 | 0.00 | 49 | 1008.9 |
| 20260505011208 | 78 | 276 | 0.0 | 1.0 | 0.00 | 0.00 | 0.00 | 48 | 1009.0 |
| 20260505010703 | 79 | 293 | 0.0 | 1.0 | 0.00 | 0.00 | 0.00 | 48 | 1009.0 |
| 20260505010200 | 79 | 217 | 4.0 | 5.0 | 0.00 | 0.00 | 0.00 | 47 | 1009.0 |
| 20260505005656 | 80 | 195 | 3.0 | 5.0 | 0.00 | 0.00 | 0.00 | 44 | 1008.9 |
| 20260505005153 | 79 | 269 | 1.0 | 1.0 | 0.00 | 0.00 | 0.00 | 45 | 1008.8 |
| 20260505004650 | 79 | 165 | 3.0 | 5.0 | 0.00 | 0.00 | 0.00 | 44 | 1009.1 |
| 20260505004146 | 80 | 193 | 4.0 | 5.0 | 0.00 | 0.00 | 0.00 | 44 | 1009.1 |
| 20260505003644 | 79 | 281 | 3.0 | 3.0 | 0.00 | 0.00 | 0.00 | 43 | 1009.0 |
| 20260505003142 | 80 | 252 | 6.0 | 7.0 | 0.00 | 0.00 | 0.00 | 42 | 1008.9 |
| 20260505002638 | 79 | 243 | 3.0 | 3.0 | 0.00 | 0.00 | 0.00 | 44 | 1009.1 |
| 20260505002136 | 80 | 251 | 4.0 | 6.0 | 0.00 | 0.00 | 0.00 | 43 | 1009.2 |
| 20260505001632 | 80 | 293 | 1.0 | 1.0 | 0.00 | 0.00 | 0.00 | 43 | 1009.0 |
| 20260505001130 | 80 | 306 | 2.0 | 2.0 | 0.00 | 0.00 | 0.00 | 43 | 1009.2 |
| 20260505000627 | 80 | 249 | 6.0 | 8.0 | 0.00 | 0.00 | 0.00 | 43 | 1009.3 |
| 20260505000125 | 80 | 225 | 4.0 | 5.0 | 0.00 | 0.00 | 0.00 | 42 | 1009.0 |
| 20260504235621 | 79 | 258 | 4.0 | 6.0 | 0.00 | 0.00 | 0.00 | 43 | 1009.2 |
| 20260504235117 | 81 | 237 | 5.0 | 6.0 | 0.00 | 0.00 | 0.00 | 40 | 1009.1 |
| 20260504234614 | 80 | 275 | 5.0 | 6.0 | 0.00 | 0.00 | 0.00 | 42 | 1009.1 |
| 20260504234112 | 80 | 301 | 2.0 | 3.0 | 0.00 | 0.00 | 0.00 | 40 | 1009.3 |
| 20260504233607 | 80 | 186 | 5.0 | 7.0 | 0.00 | 0.00 | 0.00 | 40 | 1009.3 |
| 20260504233104 | 80 | 208 | 5.0 | 7.0 | 0.00 | 0.00 | 0.00 | 40 | 1009.3 |
| 20260504232601 | 80 | 278 | 1.0 | 1.0 | 0.00 | 0.00 | 0.00 | 39 | 1009.4 |
| 20260504232059 | 80 | 204 | 5.0 | 7.0 | 0.00 | 0.00 | 0.00 | 39 | 1009.2 |
| 20260504231555 | 79 | 205 | 4.0 | 6.0 | 0.00 | 0.00 | 0.00 | 40 | 1009.3 |
| 20260504231051 | 80 | 289 | 5.0 | 7.0 | 0.00 | 0.00 | 0.00 | 38 | 1009.3 |
| 20260504230547 | 79 | 244 | 3.0 | 5.0 | 0.00 | 0.00 | 0.00 | 40 | 1009.2 |
| 20260504230047 | 80 | 208 | 3.0 | 3.0 | 0.00 | 0.00 | 0.00 | 39 | 1009.3 |
| 20260504225543 | 80 | 212 | 3.0 | 3.0 | 0.00 | 0.00 | 0.00 | 38 | 1009.6 |
| 20260504225040 | 80 | 182 | 6.0 | 7.0 | 0.00 | 0.00 | 0.00 | 39 | 1009.4 |
| 20260504224537 | 79 | 205 | 6.0 | 8.0 | 0.00 | 0.00 | 0.00 | 40 | 1009.6 |
| 20260504224034 | 80 | 207 | 4.0 | 5.0 | 0.00 | 0.00 | 0.00 | 40 | 1009.5 |
| 20260504223531 | 80 | 246 | 3.0 | 3.0 | 0.00 | 0.00 | 0.00 | 40 | 1009.7 |
| 20260504223027 | 81 | 251 | 2.0 | 3.0 | 0.00 | 0.00 | 0.00 | 38 | 1009.8 |
| 20260504222523 | 80 | 236 | 5.0 | 7.0 | 0.00 | 0.00 | 0.00 | 37 | 1009.9 |
| 20260504222021 | 79 | 254 | 3.0 | 5.0 | 0.00 | 0.00 | 0.00 | 41 | 1009.9 |
| 20260504221518 | 79 | 296 | 5.0 | 7.0 | 0.00 | 0.00 | 0.00 | 37 | 1009.9 |
| 20260504221015 | 78 | 256 | 2.0 | 3.0 | 0.00 | 0.00 | 0.00 | 38 | 1010.0 |
| 20260504220512 | 77 | 258 | 5.0 | 7.0 | 0.00 | 0.00 | 0.00 | 39 | 1010.0 |
| 20260504220009 | 78 | 282 | 3.0 | 3.0 | 0.00 | 0.00 | 0.00 | 36 | 1010.0 |
| 20260504215505 | 78 | 254 | 4.0 | 6.0 | 0.00 | 0.00 | 0.00 | 35 | 1010.2 |
| 20260504215003 | 78 | 235 | 6.0 | 8.0 | 0.00 | 0.00 | 0.00 | 40 | 1010.1 |
| 20260504214458 | 77 | 181 | 3.0 | 3.0 | 0.00 | 0.00 | 0.00 | 43 | 1010.2 |
| 20260504213955 | 77 | 229 | 5.0 | 7.0 | 0.00 | 0.00 | 0.00 | 44 | 1010.1 |
| 20260504213451 | 77 | 236 | 7.0 | 10.0 | 0.00 | 0.00 | 0.00 | 47 | 1010.2 |
| 20260504212949 | 77 | 251 | 6.0 | 7.0 | 0.00 | 0.00 | 0.00 | 47 | 1010.2 |
| 20260504212444 | 77 | 275 | 3.0 | 5.0 | 0.00 | 0.00 | 0.00 | 49 | 1010.2 |
| 20260504211942 | 78 | 227 | 2.0 | 3.0 | 0.00 | 0.00 | 0.00 | 47 | 1010.3 |
| 20260504211438 | 77 | 206 | 5.0 | 7.0 | 0.00 | 0.00 | 0.00 | 48 | 1010.4 |
| 20260504210936 | 77 | 269 | 0.0 | 0.0 | 0.00 | 0.00 | 0.00 | 49 | 1010.4 |
| 20260504210432 | 76 | 251 | 3.0 | 3.0 | 0.00 | 0.00 | 0.00 | 50 | 1010.4 |
| 20260504205929 | 77 | 241 | 5.0 | 6.0 | 0.00 | 0.00 | 0.00 | 50 | 1010.7 |
| 20260504205427 | 77 | 249 | 6.0 | 7.0 | 0.00 | 0.00 | 0.00 | 49 | 1010.5 |
| 20260504204925 | 76 | 190 | 3.0 | 5.0 | 0.00 | 0.00 | 0.00 | 49 | 1010.6 |
| 20260504204423 | 76 | 246 | 4.0 | 6.0 | 0.00 | 0.00 | 0.00 | 48 | 1010.5 |
| 20260504203922 | 77 | 250 | 4.0 | 6.0 | 0.00 | 0.00 | 0.00 | 49 | 1010.4 |
| 20260504203419 | 76 | 253 | 5.0 | 6.0 | 0.00 | 0.00 | 0.00 | 49 | 1010.3 |
| 20260504202915 | 76 | 233 | 5.0 | 7.0 | 0.00 | 0.00 | 0.00 | 48 | 1010.4 |
| 20260504202412 | 76 | 199 | 4.0 | 5.0 | 0.00 | 0.00 | 0.00 | 47 | 1010.5 |
| 20260504201909 | 75 | 207 | 3.0 | 5.0 | 0.00 | 0.00 | 0.00 | 49 | 1010.6 |
| 20260504201406 | 77 | 243 | 3.0 | 6.0 | 0.00 | 0.00 | 0.00 | 48 | 1010.6 |
| 20260504200903 | 75 | 279 | 7.0 | 8.0 | 0.00 | 0.00 | 0.00 | 49 | 1010.4 |
| 20260504200400 | 74 | 244 | 5.0 | 8.0 | 0.00 | 0.00 | 0.00 | 50 | 1010.6 |
| 20260504195856 | 74 | 224 | 3.0 | 5.0 | 0.00 | 0.00 | 0.00 | 48 | 1010.7 |
| 20260504195352 | 73 | 208 | 5.0 | 7.0 | 0.00 | 0.00 | 0.00 | 53 | 1010.6 |
| 20260504194849 | 73 | 249 | 8.0 | 9.0 | 0.00 | 0.00 | 0.00 | 53 | 1010.5 |
| 20260504194345 | 73 | 254 | 7.0 | 8.0 | 0.00 | 0.00 | 0.00 | 53 | 1010.7 |
| 20260504193841 | 73 | 264 | 3.0 | 5.0 | 0.00 | 0.00 | 0.00 | 54 | 1010.3 |
| 20260504193338 | 74 | 209 | 4.0 | 7.0 | 0.00 | 0.00 | 0.00 | 51 | 1010.5 |
| 20260504192837 | 73 | 246 | 4.0 | 6.0 | 0.00 | 0.00 | 0.00 | 53 | 1010.7 |
| 20260504192335 | 73 | 249 | 3.0 | 5.0 | 0.00 | 0.00 | 0.00 | 50 | 1010.6 |
| 20260504191833 | 73 | 260 | 6.0 | 9.0 | 0.00 | 0.00 | 0.00 | 49 | 1010.5 |
| 20260504191330 | 72 | 238 | 7.0 | 8.0 | 0.00 | 0.00 | 0.00 | 50 | 1010.6 |
| 20260504190825 | 73 | 255 | 4.0 | 7.0 | 0.00 | 0.00 | 0.00 | 49 | 1010.9 |
| 20260504190322 | 75 | 246 | 4.0 | 5.0 | 0.00 | 0.00 | 0.00 | 47 | 1010.7 |
| 20260504185819 | 77 | 256 | 5.0 | 6.0 | 0.00 | 0.00 | 0.00 | 42 | 1010.6 |
| 20260504185316 | 75 | 326 | 2.0 | 3.0 | 0.00 | 0.00 | 0.00 | 41 | 1010.6 |
| 20260504184812 | 75 | 208 | 4.0 | 5.0 | 0.00 | 0.00 | 0.00 | 42 | 1010.8 |
| 20260504184308 | 75 | 245 | 2.0 | 3.0 | 0.00 | 0.00 | 0.00 | 41 | 1010.6 |
| 20260504183803 | 73 | 273 | 4.0 | 5.0 | 0.00 | 0.00 | 0.00 | 44 | 1010.7 |
| 20260504183301 | 74 | 193 | 3.0 | 5.0 | 0.00 | 0.00 | 0.00 | 42 | 1010.8 |
| 20260504182759 | 73 | 169 | 3.0 | 5.0 | 0.00 | 0.00 | 0.00 | 44 | 1010.9 |
| 20260504182255 | 71 | 281 | 1.0 | 2.0 | 0.00 | 0.00 | 0.00 | 47 | 1010.9 |
| 20260504181753 | 73 | 295 | 5.0 | 6.0 | 0.00 | 0.00 | 0.00 | 48 | 1010.9 |
| 20260504181250 | 71 | 257 | 3.0 | 3.0 | 0.00 | 0.00 | 0.00 | 50 | 1010.7 |
| 20260504180749 | 70 | 241 | 3.0 | 5.0 | 0.00 | 0.00 | 0.00 | 50 | 1011.0 |
| 20260504180247 | 73 | 280 | 6.0 | 7.0 | 0.00 | 0.00 | 0.00 | 49 | 1010.7 |
| 20260504175745 | 73 | 217 | 2.0 | 2.0 | 0.00 | 0.00 | 0.00 | 45 | 1010.8 |
| 20260504175241 | 73 | 197 | 4.0 | 5.0 | 0.00 | 0.00 | 0.00 | 46 | 1010.7 |
| 20260504174739 | 73 | 194 | 4.0 | 5.0 | 0.00 | 0.00 | 0.00 | 47 | 1010.7 |
| 20260504174237 | 72 | 279 | 2.0 | 3.0 | 0.00 | 0.00 | 0.00 | 47 | 1010.7 |
| 20260504173733 | 72 | 285 | 2.0 | 3.0 | 0.00 | 0.00 | 0.00 | 47 | 1010.8 |
| 20260504173230 | 70 | 253 | 3.0 | 3.0 | 0.00 | 0.00 | 0.00 | 51 | 1010.7 |
| 20260504172727 | 70 | 253 | 4.0 | 5.0 | 0.00 | 0.00 | 0.00 | 52 | 1010.8 |
| 20260504172223 | 71 | 244 | 5.0 | 6.0 | 0.00 | 0.00 | 0.00 | 50 | 1011.0 |
| 20260504171720 | 72 | 240 | 5.0 | 5.0 | 0.00 | 0.00 | 0.00 | 50 | 1010.8 |
| 20260504171217 | 71 | 293 | 0.0 | 0.0 | 0.00 | 0.00 | 0.00 | 50 | 1010.6 |
| 20260504170714 | 71 | 256 | 3.0 | 5.0 | 0.00 | 0.00 | 0.00 | 49 | 1010.8 |
| 20260504170211 | 71 | 227 | 1.0 | 2.0 | 0.00 | 0.00 | 0.00 | 50 | 1010.8 |
| 20260504160129 | 67 | 39 | 1.0 | 2.0 | 0.00 | 0.00 | 0.00 | 64 | 1010.7 |